Regional Weather Roundup
Issued by NWS Goodland, KS

Home | Current Version | Previous Version | Text Only | Print | Product List | Glossary Off
Versions: 1 2 3 4 5 6 7 8 9 10 11 12 13 14 15 16 17 18 19 20 21 22 23 24 25 26 27 28 29 30 31 32 33 34 35 36 37 38 39 40 41 42 43 44 45 46 47 48 49 50

000
ASUS43 KGLD 251908
RWRGLD

GOODLAND FORECAST AREA HOURLY WEATHER ROUNDUP
NATIONAL WEATHER SERVICE GOODLAND KS
1200 PM MST SAT FEB 25 2017

...OFFICIAL OBSERVATIONS...

CITY           SKY/WX    TMP DP  RH WIND       PRES   REMARKS
GOODLAND KS    SUNNY     38  10  31 NW8       29.94F
HILL CITY KS   CLOUDY    42  21  43 SW16      30.02F
IMPERIAL NEB   SUNNY     32  17  54 W14       29.96F
MCCOOK NEB     MOSUNNY   39  24  55 W15G23    29.96F
AKRON CO       CLOUDY    29  17  61 NW8       29.91F
BURLINGTON CO  SUNNY     39  10  30 N6        29.93F
LIMON CO       SUNNY     34   2  25 VRB3      29.88F
$$

...UNOFFICIAL OBSERVATIONS...

CITY           SKY/WX    TMP DP  RH WIND       PRES   REMARKS
LENORA KS        N/A     40  32  73 W12         N/A
SHARON SPRINGS   N/A     40  19  42 W5          N/A
TRENTON NEB      N/A     34  32  92 CALM        N/A
KIT CARSON CO    N/A     36  13  38 CALM        N/A
YUMA CO        FAIR      30  16  55 NW5       29.94F
$$




USA.gov is the U.S. government's official web portal to all federal, state and local government web resources and services.